Weather History for PHNL - March, 2013

Change the Weather History Date:

Tuesday, March 19, 2013

  Actual Average Record
Temperature  
Mean Temperature 71 °F 75 °F  
Max Temperature 78 °F 81 °F 86 °F (1961)
Min Temperature 63 °F 68 °F 59 °F (1997)
Degree Days  
Heating Degree Days 0 0  
Month to date heating degree days 0 0  
Since 1 July heating degree days 0 0  
Cooling Degree Days 6 10  
Month to date cooling degree days 150 173  
Year to date cooling degree days 648 655  
Growing Degree Days 20 (Base 50)    
Moisture  
Dew Point 62 °F    
Average Humidity 72    
Maximum Humidity 87    
Minimum Humidity 56    
Precipitation  
Precipitation 0.00 in 0.07 in 1.89 in (2006)
Month to date precipitation 2.19 1.31  
Year to date precipitation 5.26 5.61  
Snow  
Snow 0.00 in - - ()
Month to date snowfall 0.0  
Since 1 July snowfall 0.0  
Snow Depth 0.00 in    
Sea Level Pressure  
Sea Level Pressure 29.99 in    
Wind  
Wind Speed 6 mph (ENE)    
Max Wind Speed 14 mph    
Max Gust Speed 20 mph    
Visibility 10 miles    
Events      
T = Trace of Precipitation, MM = Missing Value Source: NWS Daily Summary

Daily Weather History Graph

Daily Weather History Graph

Search for Another Location

Airport or City:

Trip Planner

Search our weather history database for the weather conditions in past years. The results will help you decide how hot, cold, wet, or windy it might be!

Date:

Astronomy

Mar. 19, 2013 Rise Set
Actual Time 6:36 AM HST 6:42 PM HST
Civil Twilight 6:14 AM HST 7:04 PM HST
Nautical Twilight 5:48 AM HST 7:30 PM HST
Astronomical Twilight 5:22 AM HST 7:56 PM HST
Moon 12:15 PM HST (3/19) 12:58 AM HST (3/19)
Length of Visible Light 12h 50m
Length of Day
12h 06m
First Quarter, 52% of the Moon is Illuminated
Mar 19
First Quarter
Mar 26
Full
Apr 2
Last Quarter
Apr 9
New
Apr 18
First Quarter

Hourly Weather History & Observations

Time (HST) Temp. Dew Point Humidity Pressure Visibility Wind Dir Wind Speed Gust Speed Precip Events Conditions
12:53 AM 66.0 °F 60.1 °F 81% 29.99 in 10.0 mi NW 4.6 mph - N/A   Partly Cloudy
1:53 AM 64.9 °F 61.0 °F 87% 29.98 in 10.0 mi NW 4.6 mph - N/A   Partly Cloudy
2:53 AM 64.9 °F 60.1 °F 84% 29.96 in 10.0 mi NNW 3.5 mph - N/A   Clear
3:53 AM 64.0 °F 60.1 °F 87% 29.96 in 10.0 mi NNW 4.6 mph - N/A   Clear
4:53 AM 64.0 °F 60.1 °F 87% 29.96 in 10.0 mi North 4.6 mph - N/A   Scattered Clouds
5:53 AM 64.9 °F 59.0 °F 81% 29.96 in 10.0 mi North 4.6 mph - N/A   Scattered Clouds
6:53 AM 64.0 °F 59.0 °F 84% 29.98 in 10.0 mi NNW 3.5 mph - N/A   Scattered Clouds
7:53 AM 66.9 °F 60.1 °F 79% 30.00 in 10.0 mi NNW 4.6 mph - N/A   Mostly Cloudy
8:53 AM 71.1 °F 60.1 °F 68% 30.02 in 10.0 mi North 3.5 mph - N/A   Mostly Cloudy
9:53 AM 73.0 °F 61.0 °F 66% 30.03 in 10.0 mi Calm Calm - N/A   Mostly Cloudy
10:53 AM 75.9 °F 61.0 °F 60% 30.02 in 10.0 mi SSE 9.2 mph - N/A   Scattered Clouds
11:53 AM 77.0 °F 61.0 °F 58% 30.01 in 10.0 mi SSE 9.2 mph - N/A   Scattered Clouds
12:53 PM 77.0 °F 62.1 °F 60% 29.99 in 10.0 mi SE 11.5 mph - N/A   Scattered Clouds
1:53 PM 78.1 °F 64.0 °F 62% 29.96 in 10.0 mi ESE 12.7 mph - N/A   Scattered Clouds
2:53 PM 77.0 °F 64.0 °F 64% 29.95 in 10.0 mi SE 9.2 mph - N/A   Scattered Clouds
3:53 PM 77.0 °F 64.0 °F 64% 29.95 in 10.0 mi SSE 10.4 mph - N/A   Scattered Clouds
4:53 PM 75.9 °F 64.0 °F 67% 29.96 in 10.0 mi SSE 8.1 mph - N/A   Scattered Clouds
5:53 PM 75.0 °F 64.0 °F 69% 29.97 in 10.0 mi SSE 5.8 mph - N/A   Scattered Clouds
6:53 PM 73.9 °F 64.0 °F 71% 29.98 in 10.0 mi SE 5.8 mph - N/A   Scattered Clouds
7:53 PM 73.9 °F 64.0 °F 71% 29.99 in 10.0 mi ESE 4.6 mph - N/A   Scattered Clouds
8:53 PM 73.0 °F 63.0 °F 71% 30.01 in 10.0 mi ESE 5.8 mph - N/A   Scattered Clouds
9:53 PM 71.1 °F 63.0 °F 75% 30.02 in 10.0 mi NE 3.5 mph - N/A   Scattered Clouds
10:53 PM 71.1 °F 63.0 °F 75% 30.02 in 10.0 mi NE 4.6 mph - N/A   Mostly Cloudy
11:53 PM 71.1 °F 63.0 °F 75% 30.01 in 10.0 mi East 6.9 mph - N/A   Mostly Cloudy